Fort Lewis, WA
on Friday, December 21, 2012

Friday
Previous Day Next Day
Daily Summary
 ActualAverage (KOLM)Record (KOLM)
Temperature
Mean Temperature °F 38°F  
Max Temperature 44°F 44°F 57°F (1980)
Min Temperature 27°F 32°F 0°F (1990)
Degree Days
Heating Degree Days 30 27  
Month to date heating degree days 556  
Since 1 July heating degree days 2001  
Cooling Degree Days 0 0  
Month to date cooling degree days 0  
Year to date cooling degree days 106  
Moisture
Dew Point 33°F   
Average Humidity 96    
Maximum Humidity 100    
Minimum Humidity 80    
Precipitation
Precipitation 0.00 in 0.23 in 1.69 in (1955)
Month to date precipitation 5.16  
Year to date precipitation 47.70  
Wind
Wind Speed 2 mph   
Max Wind Speed 7 mph   
Max Gust Speed mph   
Visibility 9 miles   
Events Rain   

Key: T is trace of precipitation, MM is missing value
Source: NWS Daily Summary
Time(PST)TemperatureDew PointHumidity Pressure Visibility Wind DirectionWind SpeedGust SpeedPrecipitationEvents Conditions
12:03 AM 28.4°F 28.4°F 100% 29.81 in 2.5 miles ENE 2.3 mph - N/A   Clear
12:08 AM 28.4°F 28.4°F 100% 29.80 in 7.0 miles ENE 1.2 mph - N/A   Clear
12:58 AM 28.2°F 27.7°F 98% 29.82 in 4.0 miles SE 1.2 mph - N/A   Clear
1:03 AM 28.4°F 28.4°F 100% 29.80 in 2.0 miles SE 1.2 mph - N/A   Clear
1:08 AM 28.4°F 28.4°F 100% 29.80 in 3.0 miles ESE 1.2 mph - N/A   Clear
1:58 AM 28.8°F 28.4°F 99% 29.80 in 10.0 miles Calm Calm - N/A   Clear
2:58 AM 27.1°F 26.8°F 99% 29.79 in 10.0 miles Calm Calm - N/A   Clear
3:58 AM 27.9°F 27.1°F 97% 29.78 in 10.0 miles SSE 2.3 mph - N/A   Clear
4:58 AM 28.9°F 28.2°F 97% 29.75 in 10.0 miles Calm Calm - N/A   Clear
5:57 AM 32.0°F 30.2°F 93% 29.74 in 10.0 miles NE 3.5 mph - N/A   Light Drizzle
5:58 AM 30.6°F 29.8°F 97% 29.76 in 10.0 miles ENE 2.3 mph - N/A   Freezing Rain
6:11 AM 32.0°F 32.0°F 100% 29.73 in 10.0 miles South 2.3 mph - N/A   Clear
6:19 AM 32.0°F 32.0°F 100% 29.73 in 10.0 miles NNE 1.2 mph - N/A   Light Drizzle
6:40 AM 32.0°F 32.0°F 100% 29.72 in 10.0 miles NNW 2.3 mph - N/A   Scattered Clouds
6:58 AM 31.6°F 30.9°F 97% 29.74 in 10.0 miles North 1.2 mph - 0.00 in   Mostly Cloudy
7:58 AM 32.4°F 30.9°F 94% 29.74 in 10.0 miles NNE 1.2 mph - N/A   Overcast
8:58 AM 32.5°F 31.8°F 97% 29.74 in 10.0 miles Calm Calm - N/A   Mostly Cloudy
9:07 AM 32.0°F 32.0°F 100% 29.72 in 10.0 miles SE 1.2 mph - N/A   Mostly Cloudy
9:33 AM 32.0°F 32.0°F 100% 29.73 in 10.0 miles East 1.2 mph - N/A   Mostly Cloudy
9:58 AM 32.9°F 32.4°F 98% 29.76 in 10.0 miles Variable 1.2 mph - 0.00 in   Mostly Cloudy
10:58 AM 36.3°F 33.8°F 91% 29.76 in 10.0 miles Calm Calm - N/A   Mostly Cloudy
11:58 AM 39.0°F 35.8°F 88% 29.76 in 10.0 miles NNW 2.3 mph - N/A   Mostly Cloudy
12:58 PM 41.9°F 36.9°F 82% 29.76 in 10.0 miles North 3.5 mph - N/A   Overcast
1:58 PM 44.1°F 38.1°F 80% 29.75 in 10.0 miles North 5.8 mph - N/A   Scattered Clouds
2:58 PM 44.2°F 39.7°F 84% 29.74 in 10.0 miles NE 2.3 mph - N/A   Mostly Cloudy
3:58 PM 41.5°F 38.8°F 90% 29.75 in 10.0 miles East 3.5 mph - N/A   Scattered Clouds
4:58 PM 40.1°F 37.4°F 90% 29.73 in 10.0 miles Calm Calm - N/A   Partly Cloudy
5:58 PM 37.0°F 36.3°F 97% 29.72 in 10.0 miles Calm Calm - N/A   Mostly Cloudy
6:58 PM 36.5°F 36.3°F 99% 29.70 in 10.0 miles South 2.3 mph - N/A   Overcast
7:58 PM 35.4°F 35.1°F 99% 29.70 in 10.0 miles SE 3.5 mph - N/A   Overcast
8:58 PM 35.8°F 35.6°F 99% 29.71 in 10.0 miles ESE 6.9 mph - N/A   Scattered Clouds
9:50 PM 37.4°F 35.6°F 93% 29.68 in 10.0 miles East 1.2 mph - N/A Rain Light Rain
9:58 PM 36.5°F 36.3°F 99% 29.70 in 10.0 miles Variable 2.3 mph - 0.00 in Rain Light Rain
10:30 PM 37.4°F 37.4°F 100% 29.66 in 10.0 miles North 2.3 mph - N/A   Partly Cloudy
10:58 PM 36.5°F 36.3°F 99% 29.68 in 10.0 miles ENE 3.5 mph - 0.00 in   Overcast
11:58 PM 37.0°F 36.5°F 98% 29.66 in 10.0 miles ENE 2.3 mph - N/A   Mostly Cloudy
Moon Phase
Dec. 21 Dec. 28 Jan. 04 Jan. 11 Jan. 18
Sunrise:07:53 AM (PST) Moon Rise:12:28 PM (PST)12/21
Sunset:04:23 PM (PST) Moon Set:01:29 AM (PST)12/21

Copyright © 2014 The Weather Underground, Inc.